• In Switzerland
  • List of Countries
  • For 7 days
  • Water Temperature
  • Satellite Maps
  • Weather Map
  • Weather Widgets
  • user-avatar
    Login

    Hourly Weather Verderevo

    Today, 20 August, Monday

    Time Temperature Precipitation Wind Pressure Humidity
    00:00 +18°C° 0 mm 2 mps 748 mmHg 68%
    01:00 +17°C° 0 mm 2 mps 748 mmHg 69%
    02:00 +17°C° 0 mm 2 mps 748 mmHg 70%
    03:00 +17°C° 0 mm 2 mps 748 mmHg 72%
    04:00 +17°C° 0 mm 2 mps 748 mmHg 73%
    05:00 +16°C° 0 mm 2 mps 748 mmHg 74%
    06:00 +16°C° 0 mm 3 mps 748 mmHg 74%
    07:00 +18°C° 0 mm 3 mps 748 mmHg 70%
    08:00 +20°C° 0 mm 3 mps 748 mmHg 65%
    09:00 +22°C° 0 mm 3 mps 748 mmHg 60%
    10:00 +23°C° 0 mm 4 mps 748 mmHg 55%
    11:00 +26°C° 0 mm 4 mps 747 mmHg 51%
    12:00 +27°C° 0 mm 5 mps 747 mmHg 46%
    13:00 +27°C° 0 mm 5 mps 747 mmHg 46%
    14:00 +27°C° 0 mm 5 mps 747 mmHg 45%
    15:00 +28°C° 0 mm 5 mps 747 mmHg 45%
    16:00 +27°C° 0 mm 4 mps 746 mmHg 48%
    17:00 +27°C° 0 mm 3 mps 746 mmHg 52%
    18:00 +26°C° 0 mm 3 mps 746 mmHg 56%
    19:00 +25°C° 0 mm 3 mps 746 mmHg 60%
    20:00 +22°C° 0 mm 3 mps 745 mmHg 64%
    21:00 +20°C° 0 mm 3 mps 745 mmHg 68%
    22:00 +20°C° 0 mm 3 mps 745 mmHg 68%
    23:00 +19°C° 0 mm 3 mps 745 mmHg 69%

    Tomorrow, 21 August, Tuesday

    Time Temperature Precipitation Wind Pressure Humidity
    00:00 +19°C° 0 mm 3 mps 745 mmHg 69%
    01:00 +19°C° 0 mm 3 mps 745 mmHg 70%
    02:00 +18°C° 0 mm 3 mps 745 mmHg 71%
    03:00 +18°C° 0 mm 3 mps 744 mmHg 71%
    04:00 +18°C° 0 mm 3 mps 744 mmHg 73%
    05:00 +18°C° 0 mm 3 mps 744 mmHg 74%
    06:00 +18°C° 0 mm 4 mps 744 mmHg 76%
    07:00 +19°C° 0 mm 4 mps 743 mmHg 71%
    08:00 +21°C° 0 mm 5 mps 743 mmHg 66%
    09:00 +23°C° 0 mm 6 mps 743 mmHg 62%
    10:00 +24°C° 0 mm 6 mps 743 mmHg 58%
    11:00 +26°C° 0 mm 7 mps 742 mmHg 54%
    12:00 +28°C° 0 mm 8 mps 742 mmHg 51%
    13:00 +28°C° 0.3 mm 8 mps 742 mmHg 52%
    14:00 +28°C° 0.3 mm 8 mps 741 mmHg 52%
    15:00 +28°C° 0.3 mm 9 mps 741 mmHg 53%
    16:00 +27°C° 1.1 mm 8 mps 740 mmHg 59%
    17:00 +24°C° 1.1 mm 7 mps 740 mmHg 65%
    18:00 +23°C° 1.1 mm 6 mps 740 mmHg 71%
    19:00 +22°C° 1 mm 5 mps 740 mmHg 76%
    20:00 +21°C° 1 mm 5 mps 740 mmHg 81%
    21:00 +19°C° 1 mm 4 mps 740 mmHg 86%
    22:00 +19°C° 0 mm 4 mps 741 mmHg 87%
    23:00 +18°C° 0 mm 3 mps 741 mmHg 88%

    Day after tomorrow, 22 August, Wednesday

    Time Temperature Precipitation Wind Pressure Humidity
    00:00 +17°C° 0 mm 3 mps 741 mmHg 89%
    01:00 +16°C° 0 mm 3 mps 741 mmHg 89%
    02:00 +14°C° 0 mm 3 mps 742 mmHg 88%
    03:00 +13°C° 0 mm 3 mps 742 mmHg 87%
    04:00 +13°C° 0 mm 3 mps 743 mmHg 87%
    05:00 +12°C° 0 mm 3 mps 743 mmHg 86%
    06:00 +11°C° 0 mm 3 mps 743 mmHg 85%
    07:00 +13°C° 0 mm 4 mps 744 mmHg 78%
    08:00 +14°C° 0 mm 5 mps 744 mmHg 71%
    09:00 +16°C° 0 mm 5 mps 744 mmHg 65%
    10:00 +17°C° 0 mm 6 mps 744 mmHg 60%
    11:00 +19°C° 0 mm 6 mps 745 mmHg 55%
    12:00 +20°C° 0 mm 6 mps 745 mmHg 50%
    13:00 +20°C° 0 mm 6 mps 745 mmHg 49%
    14:00 +20°C° 0 mm 6 mps 745 mmHg 48%
    15:00 +20°C° 0 mm 6 mps 745 mmHg 47%
    16:00 +20°C° 0 mm 5 mps 746 mmHg 50%
    17:00 +20°C° 0 mm 5 mps 746 mmHg 53%
    18:00 +19°C° 0 mm 4 mps 746 mmHg 57%
    19:00 +18°C° 0 mm 3 mps 747 mmHg 60%
    20:00 +16°C° 0 mm 3 mps 747 mmHg 64%
    21:00 +14°C° 0 mm 3 mps 748 mmHg 67%
    22:00 +13°C° 0 mm 3 mps 748 mmHg 69%
    23:00 +12°C° 0 mm 3 mps 749 mmHg 70%

    23 August, Thursday

    Time Temperature Precipitation Wind Pressure Humidity
    00:00 +12°C° 0 mm 3 mps 749 mmHg 72%
    01:00 +11°C° 0 mm 3 mps 749 mmHg 73%
    02:00 +11°C° 0 mm 3 mps 750 mmHg 74%
    03:00 +10°C° 0 mm 2 mps 750 mmHg 75%
    04:00 +10°C° 0 mm 2 mps 750 mmHg 75%
    05:00 +10°C° 0 mm 2 mps 751 mmHg 76%
    06:00 +9°C° 0 mm 2 mps 751 mmHg 76%
    07:00 +12°C° 0 mm 2 mps 751 mmHg 70%
    08:00 +14°C° 0 mm 2 mps 752 mmHg 64%
    09:00 +16°C° 0 mm 3 mps 752 mmHg 58%
    10:00 +17°C° 0 mm 3 mps 752 mmHg 53%
    11:00 +18°C° 0 mm 3 mps 752 mmHg 48%
    12:00 +19°C° 0 mm 3 mps 752 mmHg 43%
    13:00 +19°C° 0 mm 3 mps 752 mmHg 42%
    14:00 +20°C° 0 mm 3 mps 752 mmHg 41%
    15:00 +20°C° 0 mm 3 mps 752 mmHg 40%
    16:00 +20°C° 0 mm 2 mps 751 mmHg 43%
    17:00 +20°C° 0 mm 2 mps 751 mmHg 47%
    18:00 +19°C° 0 mm 2 mps 751 mmHg 50%
    19:00 +19°C° 0 mm 1 mps 751 mmHg 53%
    20:00 +16°C° 0 mm 1 mps 752 mmHg 56%
    21:00 +14°C° 0 mm 1 mps 752 mmHg 59%
    22:00 +14°C° 0 mm 1 mps 752 mmHg 60%
    23:00 +13°C° 0 mm 1 mps 752 mmHg 61%

    24 August, Friday

    Time Temperature Precipitation Wind Pressure Humidity
    00:00 +13°C° 0 mm 1 mps 752 mmHg 62%
    01:00 +13°C° 0 mm 1 mps 752 mmHg 63%
    02:00 +12°C° 0 mm 1 mps 752 mmHg 64%
    03:00 +12°C° 0 mm 1 mps 752 mmHg 66%
    04:00 +12°C° 0 mm 1 mps 752 mmHg 67%
    05:00 +12°C° 0 mm 1 mps 752 mmHg 69%
    06:00 +12°C° 0 mm 1 mps 752 mmHg 70%
    07:00 +14°C° 0 mm 1 mps 752 mmHg 65%
    08:00 +16°C° 0 mm 1 mps 752 mmHg 59%
    09:00 +18°C° 0 mm 2 mps 752 mmHg 54%
    10:00 +19°C° 0 mm 2 mps 752 mmHg 50%
    11:00 +20°C° 0 mm 2 mps 752 mmHg 47%
    12:00 +21°C° 0 mm 2 mps 752 mmHg 43%
    13:00 +23°C° 0 mm 2 mps 752 mmHg 42%
    14:00 +23°C° 0 mm 2 mps 751 mmHg 41%
    15:00 +24°C° 0 mm 2 mps 751 mmHg 39%
    16:00 +23°C° 0 mm 2 mps 751 mmHg 43%
    17:00 +23°C° 0 mm 2 mps 750 mmHg 46%
    18:00 +22°C° 0 mm 1 mps 750 mmHg 49%
    19:00 +21°C° 0 mm 1 mps 750 mmHg 52%
    20:00 +19°C° 0 mm 1 mps 750 mmHg 55%
    21:00 +16°C° 0 mm 1 mps 750 mmHg 58%
    22:00 +16°C° 0 mm 1 mps 750 mmHg 59%
    23:00 +15°C° 0 mm 2 mps 750 mmHg 60%

    25 August, Saturday

    Time Temperature Precipitation Wind Pressure Humidity
    00:00 +15°C° 0 mm 2 mps 750 mmHg 61%
    01:00 +14°C° 0 mm 2 mps 750 mmHg 61%
    02:00 +14°C° 0 mm 2 mps 750 mmHg 62%
    03:00 +14°C° 0 mm 2 mps 750 mmHg 62%
    04:00 +14°C° 0 mm 2 mps 750 mmHg 63%
    05:00 +13°C° 0 mm 2 mps 750 mmHg 64%
    06:00 +13°C° 0 mm 2 mps 750 mmHg 65%
    07:00 +15°C° 0 mm 2 mps 750 mmHg 61%
    08:00 +17°C° 0 mm 2 mps 750 mmHg 56%
    09:00 +19°C° 0 mm 2 mps 750 mmHg 51%
    10:00 +21°C° 0 mm 2 mps 750 mmHg 47%
    11:00 +23°C° 0 mm 2 mps 750 mmHg 44%
    12:00 +24°C° 0 mm 2 mps 750 mmHg 40%
    13:00 +25°C° 0 mm 2 mps 750 mmHg 39%
    14:00 +25°C° 0 mm 2 mps 749 mmHg 38%
    15:00 +26°C° 0 mm 2 mps 749 mmHg 37%
    16:00 +25°C° 0 mm 2 mps 749 mmHg 41%
    17:00 +24°C° 0 mm 2 mps 748 mmHg 45%
    18:00 +24°C° 0 mm 2 mps 748 mmHg 48%
    19:00 +21°C° 0 mm 2 mps 748 mmHg 51%
    20:00 +19°C° 0 mm 2 mps 748 mmHg 53%
    21:00 +18°C° 0 mm 2 mps 748 mmHg 56%
    22:00 +17°C° 0 mm 2 mps 748 mmHg 57%
    23:00 +17°C° 0 mm 2 mps 748 mmHg 58%
    Show more